THOR ABLESTAR DEB

Satellite information

Favourite Embed

Satellite Type and Status

DEBRISIN ORBIT

Key statistics

Satellite THOR ABLESTAR DEB at a glance.

Uptime

23382

Days in orbit

Revolutions

≈ 14.3

Per day

Orbit

LEO

Low Earth Orbit

Inclination

66.7

Latest

Satellite identification and parameters

Extended collection of information and parameters for THOR ABLESTAR DEB.

Object identification

Identified? True

Debris? True

Object name: THOR ABLESTAR DEB

International designator: 1961-015D

Object number (NORAD): 119

Object ID (CCSDS): 119

Country: UNITED STATES OF AMERICA (US)

Current information (Y/N): Y

RCS size: MEDIUM

Orbital parameters

Period: 100.937 minutes

Inclination: 66.725 deg

SMA: 7181.125 km

Apoapsis: 873.024 km

Periapsis: 732.956 km

RAAN: 212.607 deg

Eccentricy: 0.0097525

Argument of periapsis: 156.1453 deg

Mean anomaly: 204.421 deg

Mean motion: 14.26638717 rev/day

Mean motion (dot): 0.00000436 rev/day2

B* drag term: 0.00020448 1/REarth

Two-line elements (TLE)

Creation date: July 4, 2025, 2:26 p.m.

Reference frame: TEME

Reference center: EARTH

Epoch: July 4, 2025, 12:45 p.m. UTC

TLE line 0: 0 THOR ABLESTAR DEB

TLE line 1: 1 119U 61015D 25185.53139124 .00000436 00000-0 20448-3 0 9997

TLE line 2: 2 119 66.7250 212.6070 0097525 156.1453 204.4210 14.26638717309156

Live tracking on map

Real-time ground track for satellite THOR ABLESTAR DEB.

In-orbit conjunctions

A list of the most updated potential collisions computed for object THOR ABLESTAR DEB.

Target Orbit TCA Probability of collision Miss distance Type
CZ-6A DEB LEO 2024-11-30 06:29:25 0.0001137311 468.0 (m) DEBRIS

Associated space launch

THOR ABLESTAR DEB was lifted into orbit during the mission ‘Thor DM-21 Ablestar | Transit 4A & Injun-1 & Solrad 3’, on board a Thor DM-21 Ablestar space rocket.

The launch took place on June 29, 1961, 4:23 a.m. from Space Launch Complex 17B.

For more information about the launch, click the button.

Launch to space Thor DM-21 Ablestar | Transit 4A & Injun-1 & Solrad 3
Thor DM-21 Ablestar | Transit 4A & Injun-1 & Solrad 3

Agency: N/A

Status: Launch Successful

Launch date: June 29, 1961, 4:23 a.m. UTC

Rocket: Thor DM-21 Ablestar

Launch pad: Space Launch Complex 17B

Location: Cape Canaveral SFS, FL, USA

...

Latest news about this satellite

There are no fresh news available about this satellite. Check back as we update our databases every day.


Newsletter sign-up

Weekly statistics, charts and insights to help you stay on top of the space industry.